Theta_e
311 313 315 315 315 315 316 317 316 316 317 316 315 314 314 314 313 312 311 311 310 310 311 311 310 309 309 310 311 313 315 315 314 316 321 322 317 318 320 321 323 321 319 318 318 318 318 319 319 319 320 320 321 322 321 321 322 322 325 323 318 320 321 322 323 323 325 326 325 322 323 324 325 327 328 335 340 343 349 352 349 344 345 343 346 351 353 354
311 313 315 315 315 315 316 316 316 317 316 316 316 315 314 314 314 313 313 312 311 311 310 311 311 310 310 311 312 314 315 316 318 319 322 319 318 319 318 320 323 322 321 319 319 318 319 322 320 318 319 321 320 321 321 322 321 322 326 323 320 326 326 324 323 324 325 323 325 323 323 323 324 327 330 339 346 351 358 355 351 352 352 350 351 353 353 354
310 312 314 315 315 315 316 316 316 316 316 316 316 315 314 314 314 314 314 313 312 312 310 311 312 312 311 312 313 314 316 321 327 329 322 316 320 318 318 321 323 322 322 321 320 317 317 320 318 317 318 320 321 321 320 321 321 321 323 321 325 327 325 325 323 324 324 323 326 322 324 325 324 327 329 338 345 351 358 356 355 355 355 354 354 353 353 353
309 311 314 316 316 315 316 316 317 316 316 316 315 315 314 314 314 314 314 313 313 312 311 311 312 312 312 313 313 314 320 328 333 330 320 318 318 318 321 323 324 322 322 322 321 319 317 317 316 317 319 321 322 320 320 320 321 321 321 322 324 323 323 326 324 324 325 325 326 323 328 330 327 327 328 334 338 342 351 353 355 355 355 355 353 353 352 352
308 310 313 316 316 315 315 316 316 316 316 315 315 314 314 314 314 313 313 313 313 313 311 311 312 312 312 313 313 316 324 333 331 328 326 321 317 318 322 324 325 322 321 321 321 318 317 316 317 319 320 322 322 320 321 321 320 321 321 322 323 321 323 326 325 324 324 325 325 324 328 330 330 331 332 334 336 337 344 347 351 352 353 354 353 352 351 351
308 310 312 315 317 316 315 316 315 315 315 314 314 314 313 313 313 312 312 312 313 312 312 312 312 312 312 312 315 320 328 333 327 327 330 324 319 320 322 325 325 322 321 321 318 317 318 319 320 322 321 321 321 320 321 320 319 321 321 322 323 321 322 324 324 324 324 325 324 323 327 332 334 335 334 337 338 336 339 347 351 351 352 353 352 353 352 352
308 309 311 315 317 317 315 315 315 314 314 314 313 313 312 312 311 311 311 311 312 312 312 312 311 312 312 314 318 324 331 331 326 326 328 325 322 321 322 325 325 322 321 318 317 318 320 321 322 322 321 320 321 320 320 319 319 320 322 323 323 323 323 324 324 323 325 324 323 325 331 335 334 335 337 340 341 337 340 351 353 351 353 353 352 353 352 351
308 309 310 313 316 318 316 315 315 314 314 314 313 313 312 311 311 311 311 311 312 312 312 312 312 312 313 317 324 329 332 329 326 327 326 325 324 324 324 325 324 322 319 316 317 318 320 322 323 322 321 321 320 320 320 320 320 320 321 322 322 324 323 325 326 324 324 324 327 333 335 336 335 338 341 342 342 338 344 353 353 352 353 353 353 354 353 351
308 309 310 312 315 318 318 315 314 314 314 314 314 313 313 312 311 311 311 311 312 312 312 311 312 312 314 321 328 331 333 330 328 328 325 323 324 325 325 325 322 319 317 317 318 318 321 323 323 322 321 320 319 320 320 320 321 321 321 321 322 323 323 324 326 326 325 325 332 338 337 337 337 340 341 339 340 339 346 353 353 354 354 354 355 353 353 352
308 309 309 312 314 316 318 317 314 314 314 314 314 314 313 313 312 311 311 311 312 312 312 311 311 311 314 322 327 330 331 329 329 327 324 323 321 322 323 321 318 316 317 318 318 319 321 323 323 322 319 320 320 321 320 320 320 320 320 321 322 323 323 324 324 326 326 325 334 339 336 336 336 339 341 338 339 339 347 354 353 355 355 354 355 354 353 353
309 309 309 311 313 315 318 318 316 314 314 314 314 314 313 313 313 312 311 311 311 311 311 311 311 311 315 323 328 332 329 327 327 324 323 322 319 318 318 317 317 316 316 317 318 320 320 321 321 320 320 321 321 321 321 320 320 320 320 322 323 323 323 325 325 326 325 323 331 336 334 336 338 340 341 340 341 339 346 354 354 355 354 354 354 353 353 352
309 309 309 310 313 315 317 318 318 315 314 314 314 314 314 314 313 313 313 312 311 311 311 311 311 312 319 325 329 331 327 327 327 322 321 321 318 317 315 316 317 316 316 317 318 318 319 320 319 319 320 320 320 321 321 320 319 320 321 322 324 324 324 326 325 325 325 323 329 334 330 337 349 344 338 342 343 341 345 352 353 353 352 352 353 352 353 351
308 309 309 310 312 314 316 318 319 317 314 315 316 315 314 314 314 314 314 313 313 311 311 311 310 314 324 332 331 326 325 327 326 321 320 320 319 318 315 316 318 317 316 315 317 318 319 319 318 319 319 320 321 321 321 320 319 321 322 322 323 323 324 326 325 324 325 324 330 331 323 334 354 345 339 344 343 342 345 348 350 351 349 349 349 350 351 349
309 310 309 310 312 314 316 317 319 318 315 315 317 316 314 314 314 315 314 314 314 312 312 312 311 318 328 334 328 324 328 328 324 322 321 321 321 318 316 317 318 318 317 316 317 319 319 319 318 318 320 321 321 320 320 320 319 321 321 323 323 319 321 326 324 325 325 324 329 330 325 336 353 343 341 343 340 341 341 344 346 346 346 346 348 349 349 348
309 310 309 310 311 313 315 316 318 318 317 316 317 317 315 314 314 315 315 314 314 313 313 311 313 324 333 332 327 326 330 328 323 323 322 322 322 319 318 318 318 319 318 317 318 318 318 318 318 319 321 321 320 319 320 321 322 323 320 320 322 318 320 326 324 325 324 323 326 326 328 339 347 340 342 341 337 339 340 345 345 342 345 346 348 350 348 347
310 310 310 310 311 313 315 316 318 318 318 317 317 318 317 315 314 314 314 314 314 313 314 315 317 326 334 332 328 327 327 326 325 324 323 322 321 320 320 318 318 319 318 318 318 318 318 319 319 320 321 320 320 320 321 322 322 325 320 316 319 318 318 323 326 326 323 324 324 325 333 341 343 339 340 340 337 338 341 348 348 342 344 347 350 349 348 348
311 310 310 311 311 313 315 316 318 319 319 318 318 319 319 317 314 313 313 313 313 313 316 319 319 324 332 330 330 330 328 326 326 325 322 322 322 321 321 319 318 319 319 319 319 319 319 320 320 321 322 320 320 321 320 318 320 326 325 319 320 320 318 321 327 326 323 324 324 333 343 343 342 339 338 341 340 340 342 346 348 343 343 347 349 349 349 349
310 309 310 311 311 313 315 316 317 318 320 320 319 320 319 317 315 316 316 316 317 317 319 322 322 327 332 330 333 332 328 326 326 324 322 323 322 321 321 319 319 320 319 320 320 320 319 320 320 321 323 321 321 321 318 316 320 325 324 320 321 323 322 322 326 327 325 325 326 336 342 339 341 338 336 342 341 341 343 342 344 343 342 345 346 348 349 349
309 310 310 311 312 313 314 316 317 317 318 320 321 322 321 319 319 321 320 321 326 327 326 328 330 333 331 330 334 331 328 327 326 325 323 323 321 321 321 319 320 321 319 320 321 320 319 320 320 319 320 320 321 321 319 320 321 323 322 321 321 321 322 325 325 328 328 327 328 332 334 338 343 338 335 340 341 342 343 341 342 341 343 344 343 346 348 349
310 310 311 311 312 313 315 316 317 317 318 319 322 325 326 325 328 330 326 326 330 330 329 329 330 331 328 328 330 329 329 327 325 324 323 323 321 321 321 319 320 320 320 321 321 321 319 320 320 319 319 320 321 321 321 321 321 322 321 321 322 319 320 325 325 326 326 327 327 329 333 340 342 337 335 337 341 344 343 343 342 342 345 343 343 345 346 348
309 310 311 311 312 313 314 316 317 318 319 320 324 329 329 327 332 333 331 331 328 325 327 327 327 328 327 327 327 326 326 324 324 323 322 322 321 320 321 320 320 320 320 321 320 321 320 320 320 320 320 320 320 321 322 322 323 323 322 320 321 320 321 325 326 324 323 325 326 328 332 338 341 338 336 336 341 344 343 343 342 345 349 344 343 345 345 347
309 311 311 312 313 314 315 316 318 319 320 322 326 330 326 323 327 328 327 330 328 325 327 326 325 327 326 326 327 326 325 324 323 323 322 322 320 319 320 320 320 321 321 319 320 322 321 320 320 320 320 320 320 322 323 324 325 323 322 320 318 320 322 324 326 324 323 324 326 327 327 331 337 336 336 336 339 340 339 342 341 345 351 346 346 347 347 349
309 311 311 313 313 314 316 317 318 320 321 323 325 325 322 323 329 328 327 330 331 328 327 327 327 327 327 327 328 328 326 324 324 323 321 320 319 320 321 320 320 321 319 320 321 319 318 320 321 321 320 321 322 323 323 324 325 325 322 317 316 319 319 317 321 323 325 324 326 328 326 330 333 332 335 335 335 338 337 340 341 344 350 348 347 349 348 351
310 311 312 313 314 315 318 319 321 322 322 325 323 319 319 326 331 328 330 335 334 331 327 327 326 326 328 329 328 328 326 325 324 323 320 320 320 319 320 320 321 320 320 321 321 319 318 320 322 321 321 323 322 323 325 323 325 329 324 318 317 321 319 318 321 323 326 326 328 328 326 338 343 332 335 336 334 338 339 341 343 345 349 348 348 349 348 350
310 312 313 314 315 318 320 321 322 322 322 323 321 318 319 324 327 328 336 341 336 334 330 326 326 326 327 328 327 327 325 324 325 323 320 319 320 320 321 321 321 322 321 320 321 320 321 320 321 322 323 325 323 323 326 324 322 324 326 323 321 322 321 322 322 322 322 322 327 322 317 332 351 337 337 339 337 340 342 344 345 347 350 349 349 350 348 349
310 312 314 315 316 318 323 323 321 320 320 319 318 320 318 319 323 327 342 346 337 335 330 325 327 328 327 326 325 325 324 326 325 322 320 319 320 321 323 325 324 324 324 324 324 324 323 323 322 323 323 324 324 323 325 324 318 316 322 324 323 322 321 322 321 318 317 316 322 320 314 321 335 337 343 342 337 339 343 346 347 347 350 348 347 348 348 348
310 313 315 316 317 319 323 323 322 319 317 317 319 320 316 318 323 327 341 342 336 334 326 323 325 325 325 324 324 324 324 327 325 321 321 320 322 322 324 328 327 324 325 326 324 325 326 324 322 324 324 324 324 323 325 326 318 316 323 324 323 324 320 321 319 316 317 318 320 324 317 314 320 331 342 340 338 339 341 347 349 349 349 347 346 346 348 348
310 312 316 317 318 319 320 322 324 321 317 318 319 317 317 321 325 334 340 331 330 332 324 322 323 322 325 323 324 326 326 327 326 323 322 321 323 324 324 327 326 326 326 323 319 322 327 324 322 325 323 322 325 326 326 325 321 322 327 323 321 322 320 321 318 316 319 315 316 323 317 313 319 330 336 337 337 338 341 346 348 350 348 347 347 345 346 346
309 312 316 318 319 319 320 321 323 322 319 320 320 318 320 324 332 348 343 326 324 330 325 322 323 322 325 324 324 326 326 324 326 326 323 322 325 324 325 327 326 325 323 321 320 322 324 323 323 323 322 322 326 330 326 322 324 325 324 323 323 324 323 322 318 315 316 313 314 318 312 311 319 325 330 336 337 336 340 344 345 348 348 346 347 345 344 345
309 313 315 318 320 320 320 321 321 321 321 321 322 319 322 336 348 345 332 323 324 327 323 323 325 325 325 325 324 325 325 324 325 326 324 324 325 323 324 326 323 325 326 324 323 323 321 322 323 321 323 325 325 328 325 322 323 322 322 323 322 325 330 334 333 320 314 317 319 317 312 312 316 323 331 338 341 338 339 344 345 346 347 346 346 345 344 343
310 313 316 318 320 320 320 321 322 322 323 324 323 324 333 351 358 341 328 326 326 327 324 322 324 325 325 324 325 325 324 324 324 324 324 324 324 323 324 325 324 328 331 328 323 324 323 321 324 323 323 325 323 325 325 325 325 322 325 323 318 323 330 339 341 325 316 320 322 318 315 312 313 322 329 334 343 343 339 344 346 345 345 346 344 344 343 343
310 313 317 318 319 321 320 321 323 323 324 323 325 339 352 351 345 338 335 327 323 324 323 320 320 320 322 324 325 324 324 325 324 324 325 324 325 325 325 328 327 322 325 328 323 324 326 324 324 323 324 324 321 323 323 327 330 324 326 323 319 321 324 331 338 329 321 322 321 319 317 314 316 322 324 331 346 349 342 342 345 344 344 345 344 343 342 343
308 313 317 317 317 318 317 319 321 321 322 323 333 354 361 346 336 336 331 323 322 324 321 319 319 318 320 322 323 322 323 324 324 324 325 323 325 326 323 327 328 321 323 327 322 319 324 330 327 322 325 324 322 324 321 323 328 324 323 324 324 321 316 324 333 326 320 320 319 319 316 316 321 324 331 346 356 356 349 345 345 344 343 343 344 343 341 342
309 313 317 318 316 316 316 316 317 319 319 324 342 354 347 339 339 333 324 321 323 323 319 319 320 319 320 320 320 321 323 324 323 322 324 324 324 326 326 325 324 322 323 323 322 320 318 325 329 323 323 324 323 325 322 323 328 327 326 327 327 324 316 320 326 319 318 320 319 318 317 319 322 324 336 348 349 349 345 342 342 343 343 341 342 342 342 343
309 312 318 320 316 316 317 314 315 317 320 334 357 356 338 331 331 326 322 322 322 320 320 320 320 322 324 323 321 321 322 322 322 324 326 326 325 325 328 327 323 325 327 322 323 323 316 321 331 324 321 323 320 322 321 323 328 329 327 322 322 326 324 323 326 325 321 321 323 321 321 327 328 328 336 335 332 337 340 341 340 339 344 342 342 344 342 343
309 312 320 320 316 317 315 313 315 315 325 348 361 350 337 327 322 321 321 321 320 320 322 322 322 323 323 324 324 321 322 324 323 327 327 326 328 327 324 323 321 323 328 326 325 324 318 325 335 326 323 323 318 321 321 318 325 330 323 319 324 329 325 320 324 329 321 318 327 323 318 324 324 328 343 337 328 333 342 350 346 341 346 347 345 346 343 342
310 315 325 322 317 316 312 314 314 316 340 361 352 341 337 324 318 319 319 318 317 321 326 323 320 322 320 321 324 322 325 329 326 326 327 325 327 326 321 320 321 321 322 323 324 326 323 327 334 325 320 323 318 320 323 318 325 328 319 321 329 327 326 323 321 325 321 319 326 322 316 318 316 324 345 337 327 335 343 351 353 346 346 347 345 344 342 340
313 320 329 323 315 314 313 314 313 325 356 361 343 339 331 316 313 313 315 317 315 321 327 320 318 323 322 321 324 323 327 331 328 326 328 326 324 323 320 320 321 321 320 322 323 326 324 324 333 331 320 322 324 320 323 322 321 322 318 323 326 320 323 325 320 321 322 321 325 324 321 320 317 325 335 328 330 344 345 347 354 350 346 346 345 344 344 342
317 329 334 320 315 316 312 313 319 339 355 338 325 327 317 310 314 311 312 315 314 321 322 316 318 326 326 324 324 327 327 327 327 328 326 324 323 323 319 320 323 322 321 324 324 326 326 321 327 336 323 320 328 324 320 321 320 320 320 322 323 320 320 320 320 322 321 320 323 324 322 321 328 335 332 328 336 345 344 345 348 349 350 350 347 346 349 347
320 336 337 318 315 316 312 315 323 337 339 322 317 317 310 311 312 310 314 313 312 316 314 313 319 323 324 324 324 327 331 329 326 327 325 324 325 323 317 319 324 322 321 323 321 325 332 326 324 335 332 324 328 325 319 320 321 320 320 319 320 321 321 320 321 320 318 320 324 325 321 324 339 342 329 329 332 331 337 342 339 341 346 348 347 348 351 350
319 332 331 319 315 314 314 316 318 326 330 323 319 312 309 313 311 310 316 313 312 313 310 313 318 318 320 323 321 323 331 332 325 323 326 327 326 321 316 318 322 322 322 325 324 324 331 330 326 331 331 324 325 325 320 321 321 320 321 319 318 320 320 321 324 326 324 320 320 323 321 324 335 332 323 325 325 325 333 338 338 339 340 344 351 354 351 348
320 322 320 317 314 312 319 322 320 326 329 320 315 311 310 314 311 310 313 311 313 313 311 314 316 317 319 320 318 318 324 326 322 323 326 326 323 317 315 319 321 322 323 324 325 325 329 333 329 327 327 323 323 325 322 322 322 322 323 321 322 325 323 321 324 329 327 321 321 324 320 322 329 326 322 325 324 325 331 332 334 339 340 344 347 343 339 339
322 322 318 316 313 314 325 332 327 328 325 314 312 313 311 311 310 311 311 311 313 314 314 314 315 318 317 314 315 316 318 318 319 324 325 324 322 316 315 319 319 322 325 325 326 327 331 335 329 326 331 328 327 330 327 325 324 325 325 322 322 324 322 322 324 325 325 325 326 327 325 329 334 328 322 323 323 323 326 326 327 331 337 345 345 339 337 338
319 322 325 318 312 312 319 322 320 322 320 313 313 313 311 312 311 311 311 310 312 315 316 315 315 317 316 314 315 315 314 314 318 326 327 325 323 317 316 318 317 321 325 326 326 323 326 333 328 328 333 331 331 334 329 326 325 326 325 321 320 320 318 323 327 325 329 331 324 324 329 331 330 326 322 323 323 322 323 324 325 326 332 343 349 350 347 341
320 327 330 321 314 316 317 313 314 318 316 313 316 316 312 312 312 312 311 311 312 314 315 316 316 316 317 317 317 317 317 315 318 323 324 324 322 317 317 318 317 321 324 326 327 319 321 330 326 324 329 330 330 331 326 325 325 325 325 321 321 321 318 323 326 324 330 336 329 324 327 326 323 323 322 321 323 321 321 324 325 326 332 340 343 347 350 345
325 329 330 325 318 318 318 313 310 315 314 313 318 317 312 312 312 311 311 312 313 312 312 314 316 316 317 318 319 321 320 316 316 320 321 322 320 317 318 319 318 322 324 323 325 323 324 332 330 323 326 329 329 328 325 324 323 323 324 323 322 322 320 324 328 326 329 334 328 323 324 323 322 320 319 319 321 320 323 327 326 325 328 334 336 338 344 344
322 323 322 321 319 319 319 314 309 312 314 312 314 314 313 314 313 312 313 313 313 312 312 315 317 316 317 319 320 320 320 320 320 322 321 320 319 317 319 319 318 321 320 317 323 328 324 327 330 325 322 323 322 322 321 320 319 319 320 320 320 321 322 323 326 327 327 326 323 320 320 320 319 318 317 319 319 319 321 323 323 322 324 329 334 338 343 341
318 322 317 313 316 319 316 312 310 311 312 313 316 316 315 315 315 315 316 315 313 312 313 317 319 318 317 319 320 318 321 327 328 325 320 317 319 321 322 323 318 317 316 314 319 322 317 320 325 318 314 315 314 315 317 317 317 316 315 315 315 316 318 317 318 321 321 320 317 315 317 318 318 316 316 316 316 317 319 320 321 323 324 328 333 336 337 337
315 319 317 311 313 314 310 310 312 313 315 318 320 320 316 314 317 316 314 315 316 315 315 318 321 320 317 322 327 322 321 326 328 325 320 317 320 321 323 326 321 315 313 313 316 316 315 324 326 314 311 313 310 311 315 315 316 314 312 312 312 313 315 313 314 316 316 317 316 315 319 319 315 315 315 315 315 316 318 321 322 324 326 331 335 335 334 333
312 314 315 314 317 317 314 314 315 315 317 317 317 320 318 314 315 315 312 313 315 317 318 319 320 319 316 321 327 322 320 323 323 320 317 317 320 320 319 322 318 313 312 312 315 314 313 322 323 311 310 311 308 310 313 313 315 313 310 310 311 313 314 312 313 315 316 318 319 319 320 317 315 317 317 317 317 316 317 318 319 321 324 329 333 335 335 334
306 307 308 313 323 323 316 316 315 313 317 320 316 315 316 312 311 313 314 314 312 313 316 316 317 321 319 320 322 317 317 321 320 316 313 314 317 317 317 318 314 313 313 312 313 313 313 319 320 312 311 312 308 309 312 314 316 314 311 312 312 313 314 313 314 314 314 316 317 318 318 317 318 319 318 318 319 317 316 316 316 317 318 321 325 328 330 331
304 305 306 310 319 321 314 314 314 313 317 321 315 310 312 311 310 314 318 316 312 311 313 314 318 321 319 318 317 313 312 315 314 313 311 312 314 314 314 316 312 311 314 312 313 316 314 315 315 313 315 315 311 309 312 316 317 315 315 315 313 313 315 314 314 315 317 318 317 316 318 318 319 318 317 318 318 317 316 316 315 316 316 316 317 318 318 319
Wind_Speed
22 21 21 21 21 18 16 12 7 2 5 9 11 10 10 9 10 10 10 10 9 8 7 6 7 6 7 6 7 7 7 7 8 8 9 14 17 14 11 7 3 4 8 11 11 9 9 9 11 12 7 3 3 3 4 3 2 3 2 1 3 3 5 5 4 4 3 1 3 1 4 11 9 7 6 7 10 11 7 5 5 7 8 10 15 28 31 29
23 22 21 22 21 19 16 13 7 2 4 8 9 9 9 8 9 10 10 10 9 9 8 7 6 6 6 5 5 5 6 7 8 11 17 15 11 14 17 11 5 5 7 9 11 8 4 5 7 8 5 2 3 3 5 3 1 1 2 2 4 5 5 5 5 3 2 2 1 1 2 8 11 9 7 7 9 11 10 6 7 12 11 14 20 26 26 28
23 22 21 21 21 20 17 13 8 4 4 7 8 7 7 7 8 9 10 10 10 9 8 7 6 5 4 4 4 4 5 4 4 10 13 12 14 16 17 14 9 8 8 8 9 9 8 9 9 7 4 4 3 3 5 4 2 2 4 3 6 6 3 6 3 2 3 6 2 3 3 8 10 8 5 8 10 10 10 7 7 11 12 13 14 19 23 24
24 22 21 21 21 19 17 13 10 6 5 5 6 6 6 6 7 8 9 10 10 9 8 7 5 4 3 3 3 3 4 2 3 8 5 9 17 17 18 15 11 10 10 9 9 10 10 11 10 5 2 4 4 3 4 3 2 2 3 5 7 2 2 7 6 2 2 3 5 5 9 11 8 7 6 9 8 4 7 9 11 15 16 16 13 15 20 19
23 22 21 20 20 18 16 13 10 8 6 5 5 5 5 5 6 7 8 9 9 9 7 6 5 4 3 2 2 2 2 2 3 5 3 9 14 16 18 15 11 11 10 9 10 9 10 9 4 3 2 3 3 3 5 5 1 3 5 7 9 4 2 7 7 1 3 5 6 7 11 8 5 7 5 9 8 4 5 7 13 19 19 19 17 14 15 15
23 22 20 19 18 17 14 12 10 8 6 5 5 4 4 5 5 6 7 8 8 8 6 5 5 5 4 3 2 1 1 0 5 6 4 10 12 14 16 14 12 11 11 11 9 4 5 4 1 1 2 3 4 4 8 8 1 4 6 6 8 4 1 6 5 2 3 6 5 5 7 6 8 7 3 6 4 5 6 8 12 18 19 21 20 16 15 14
22 22 20 18 17 16 13 11 9 7 6 5 5 5 5 5 5 6 7 7 7 7 6 5 5 5 5 5 2 1 1 4 9 7 5 10 12 14 15 14 13 12 12 11 8 3 2 1 1 1 2 4 5 6 9 9 3 4 5 7 8 1 2 5 4 2 5 6 2 6 7 5 10 8 4 4 2 6 8 11 11 13 16 18 17 15 15 15
22 21 20 17 16 15 13 10 8 6 6 5 5 5 6 6 6 6 7 7 7 6 6 6 6 6 6 6 2 2 0 7 9 6 8 10 13 15 15 15 14 14 14 13 9 4 1 2 3 3 2 4 4 7 9 9 4 2 4 8 9 4 1 4 4 4 2 6 5 10 8 3 7 8 6 2 2 5 12 14 12 13 14 13 13 14 13 13
22 21 19 17 15 14 12 9 7 5 5 5 4 4 5 6 6 5 7 7 7 7 7 7 7 7 8 4 1 2 3 7 6 6 10 10 12 15 15 15 16 16 13 13 12 5 1 3 6 4 1 5 5 7 6 5 4 4 6 8 9 9 7 4 2 4 2 5 9 11 8 6 6 6 5 2 3 11 15 15 14 14 14 12 11 12 12 12
21 20 19 17 14 13 11 9 5 4 5 5 5 4 4 5 6 6 6 7 7 8 8 9 8 9 8 2 2 0 4 4 5 8 11 11 12 14 16 15 16 18 13 10 11 8 5 6 6 2 1 4 4 6 5 3 5 7 8 9 10 10 9 5 0 4 4 4 11 11 9 9 4 3 3 5 4 14 15 15 15 15 14 13 12 11 11 12
20 20 19 16 14 12 11 9 6 3 3 4 4 4 3 3 5 5 6 7 8 8 8 9 9 9 6 1 3 3 5 6 8 9 11 12 13 14 16 16 16 19 14 7 11 15 13 10 6 2 1 4 4 7 6 3 7 10 9 10 12 10 8 6 4 5 2 2 10 14 7 2 3 2 7 7 6 15 17 16 17 16 14 14 15 13 10 10
19 19 18 16 14 12 10 10 7 3 2 3 3 3 3 2 4 5 6 7 8 9 9 9 9 8 3 1 4 8 5 6 8 9 10 10 10 10 12 15 14 18 17 8 12 18 15 11 7 2 5 5 4 5 5 5 7 9 7 7 12 11 8 9 6 4 2 3 9 13 6 5 4 3 9 9 8 14 17 17 16 15 13 14 14 13 9 9
19 18 18 16 14 12 10 9 8 4 3 3 3 3 3 3 3 4 6 7 8 9 9 9 9 7 2 1 8 9 5 7 8 9 10 8 6 4 8 13 12 14 18 14 13 14 13 14 8 5 7 5 3 3 5 6 5 7 6 3 7 9 7 10 6 5 4 6 11 10 4 5 6 7 9 8 9 12 14 13 13 12 11 12 11 11 10 10
19 18 17 16 14 12 10 9 8 5 3 3 4 4 3 3 3 4 6 7 8 9 8 9 9 5 2 5 10 11 9 9 11 12 11 10 6 4 7 12 13 14 17 18 16 14 15 18 11 5 5 4 3 4 6 6 3 4 6 4 3 3 6 10 5 5 5 6 13 7 3 7 8 8 8 7 9 13 12 10 10 10 9 9 9 10 10 10
19 18 16 16 14 12 11 9 8 6 3 3 4 4 4 4 3 4 5 6 7 8 8 9 9 4 2 8 11 9 4 8 17 17 13 12 9 6 9 14 16 17 17 19 19 18 18 15 8 4 4 3 2 5 6 4 3 1 2 5 3 2 6 11 7 8 8 5 10 7 2 6 6 9 9 6 8 11 11 9 8 9 9 9 8 8 9 8
18 18 17 16 14 12 10 9 8 7 5 4 4 4 4 4 4 5 5 5 6 8 8 6 6 3 1 5 7 5 3 11 18 19 15 13 11 9 12 14 14 16 17 19 21 21 17 9 4 3 2 3 1 2 4 4 5 1 2 4 4 3 5 8 8 7 12 7 6 6 4 3 4 9 9 5 7 10 10 8 8 9 10 10 8 7 8 7
18 18 17 16 15 13 10 9 7 6 5 4 3 4 4 4 5 7 7 6 6 7 6 2 0 1 3 5 5 5 7 11 15 21 20 15 13 12 11 9 8 12 13 15 16 12 8 4 2 2 1 1 1 3 4 4 5 4 1 3 5 5 6 5 6 4 10 11 7 4 6 7 5 8 9 6 7 8 9 9 9 9 9 9 8 8 8 8
19 18 17 16 15 13 11 8 6 5 4 3 3 3 3 6 7 8 9 9 7 3 1 3 1 1 3 5 4 4 6 11 15 19 21 17 15 16 12 8 6 5 3 5 7 4 2 2 1 3 3 2 1 5 2 5 5 3 2 2 5 5 5 5 4 3 4 6 7 6 6 7 4 7 10 9 9 9 9 10 9 9 10 9 9 9 9 9
20 18 17 16 15 14 12 8 6 4 3 2 2 3 4 6 6 5 6 6 4 1 1 2 3 1 1 4 6 5 6 12 13 13 19 18 16 16 12 8 5 4 2 1 4 3 2 1 2 2 4 5 6 6 9 11 8 6 4 3 6 6 4 6 5 4 4 4 5 8 7 7 7 9 12 11 9 8 8 8 8 8 9 9 9 8 9 10
21 19 17 16 15 14 12 9 7 5 3 1 4 4 3 3 2 1 1 2 4 6 4 4 6 4 6 5 5 5 6 9 9 10 18 19 13 9 7 5 2 3 3 4 4 3 3 2 4 6 8 10 10 9 11 11 9 8 6 6 7 4 4 6 6 6 4 4 7 8 8 9 11 12 14 13 9 8 9 9 8 8 8 9 10 10 10 10
22 19 18 16 14 13 11 10 8 6 4 1 3 3 2 1 1 2 3 4 8 11 11 10 10 9 12 10 11 7 2 4 6 9 18 19 9 5 3 3 3 3 4 4 3 2 3 5 8 11 13 14 11 8 8 7 10 11 8 7 6 3 4 6 6 8 2 3 7 7 8 8 12 14 14 12 11 12 13 12 11 10 10 9 10 11 10 8
23 20 18 16 14 12 10 9 8 7 5 2 1 2 1 4 2 4 2 3 7 10 13 11 9 11 15 17 22 17 4 1 5 6 13 14 6 4 3 3 5 4 3 1 1 3 1 6 13 16 13 11 11 8 6 9 11 12 7 4 3 3 3 6 7 8 4 3 6 4 6 7 11 13 12 14 15 15 14 14 13 12 10 9 11 11 10 9
24 21 19 17 14 11 8 7 6 7 7 3 2 2 7 10 5 4 1 1 7 6 8 9 8 9 10 12 19 16 6 4 5 6 11 12 5 5 4 4 6 4 1 3 4 3 3 8 15 15 9 7 11 10 8 9 7 6 4 1 3 3 1 4 6 8 6 3 2 1 2 5 4 4 9 14 14 10 11 12 10 11 11 11 12 11 12 12
24 22 20 17 13 9 6 4 6 10 7 2 3 9 13 11 6 5 1 1 5 5 7 9 7 6 9 11 11 9 7 6 5 6 12 12 4 3 5 5 5 4 4 6 7 6 8 14 14 10 8 8 11 12 7 4 3 3 3 2 3 4 2 4 6 7 7 5 2 5 4 5 3 2 7 10 7 6 8 10 9 9 9 9 9 9 12 14
25 22 20 18 13 8 4 4 8 10 5 4 5 11 13 10 10 6 2 2 4 5 5 7 5 6 12 11 8 7 6 5 5 7 13 15 9 4 3 4 4 4 8 8 7 6 11 17 13 10 11 11 12 11 6 5 1 4 4 3 3 3 3 4 5 4 5 6 3 5 5 6 5 1 6 6 6 7 7 11 12 10 8 8 8 9 10 12
25 23 21 19 14 7 2 3 9 9 3 4 8 12 12 10 12 6 3 4 3 4 2 3 3 5 8 6 6 4 3 4 6 11 17 17 14 7 2 2 1 5 7 6 4 3 8 11 8 9 11 10 10 8 7 5 3 3 5 2 3 1 1 3 3 3 2 4 4 3 3 5 6 4 7 8 11 12 8 10 13 10 10 10 9 9 10 11
25 22 20 19 15 10 3 1 8 7 2 5 11 14 15 11 9 4 4 5 3 4 2 1 0 4 5 5 6 5 2 5 3 8 16 17 12 6 4 4 1 5 4 1 2 2 6 8 6 3 2 1 3 5 6 4 6 2 6 3 3 3 4 3 2 0 3 4 5 3 4 3 4 6 7 8 11 9 7 10 12 11 11 11 11 11 11 12
25 23 19 17 15 12 7 5 7 4 2 9 14 17 15 9 4 2 5 4 3 3 1 2 1 2 3 4 7 4 4 3 1 3 10 16 12 5 5 7 4 7 3 3 3 6 4 7 7 4 4 2 3 6 5 6 4 6 7 4 2 2 5 3 2 3 2 1 6 6 0 1 5 6 2 4 7 8 10 13 13 13 13 13 13 12 12 12
25 22 18 15 12 10 9 6 4 4 7 11 15 18 12 4 2 4 5 1 3 2 1 1 1 2 2 2 4 4 3 2 2 4 4 10 10 4 5 7 6 7 5 4 5 7 5 6 5 3 5 4 6 7 6 6 3 5 3 1 1 1 2 1 1 1 2 2 4 8 2 1 5 6 3 2 6 10 12 12 11 12 12 12 12 12 11 11
24 20 17 14 11 9 8 5 3 6 8 11 16 17 7 1 4 5 2 1 2 3 2 1 1 2 3 4 3 5 4 2 2 3 2 3 7 3 2 2 4 2 4 1 5 7 7 6 3 2 5 6 6 7 5 7 6 1 4 4 5 5 4 3 2 3 3 2 7 10 5 4 3 7 3 3 5 9 10 8 8 8 9 11 11 11 12 12
22 18 16 15 12 10 8 6 7 9 9 13 17 12 3 3 4 5 1 2 1 4 4 2 4 3 1 5 4 4 5 3 2 6 3 3 3 2 2 2 2 2 4 4 5 6 6 6 4 4 5 4 4 5 3 2 2 4 5 5 4 5 5 5 5 4 2 4 7 9 4 4 3 6 5 4 5 7 9 10 10 11 12 13 12 12 13 12
22 16 14 14 13 11 8 8 10 11 11 15 13 5 5 3 3 2 3 3 2 3 4 3 5 6 4 4 3 4 4 2 2 7 7 5 4 4 4 4 3 1 3 4 4 5 5 5 5 4 4 3 3 4 5 5 5 6 4 5 4 4 4 3 4 3 1 5 7 5 6 1 5 7 7 6 6 7 9 10 12 14 14 15 15 14 13 12
22 15 12 13 13 13 13 13 11 11 14 14 7 3 6 4 0 2 3 2 1 4 5 4 6 7 3 2 3 4 2 2 3 5 6 5 4 4 5 5 5 3 2 4 1 4 5 6 7 5 4 4 1 2 2 3 1 4 3 4 3 1 1 3 4 3 2 5 6 4 4 3 4 5 5 6 7 8 10 11 14 17 18 18 17 14 12 11
23 14 9 9 11 14 18 18 14 13 14 9 4 5 6 4 3 3 2 1 3 4 5 4 6 7 4 5 4 5 3 3 5 3 3 4 4 3 5 5 3 2 1 1 1 1 0 4 5 3 2 4 4 3 2 2 1 2 4 6 4 4 3 3 3 3 4 5 6 5 4 3 2 4 6 7 8 6 5 8 11 14 17 15 13 12 11 11
23 14 6 5 9 16 21 20 17 15 10 4 5 5 4 2 3 2 2 3 2 3 6 5 5 4 5 4 3 6 4 2 8 7 2 2 3 1 3 3 1 1 3 2 3 2 2 4 6 2 1 3 6 3 1 4 4 3 1 4 1 4 5 3 3 5 3 3 4 3 3 4 4 5 6 4 6 7 6 7 6 10 12 7 7 8 9 9
24 16 4 2 11 21 25 24 18 11 4 5 6 4 2 3 2 1 2 3 2 3 5 6 6 5 4 5 5 8 6 3 7 7 4 4 3 2 3 3 5 4 2 2 3 1 2 4 7 5 4 6 6 4 3 6 2 3 3 2 5 4 7 3 3 2 2 1 4 2 3 5 4 5 7 8 10 10 8 9 6 5 8 8 7 8 9 9
23 18 4 2 17 26 29 28 16 4 2 6 5 1 2 2 2 2 2 3 3 2 4 4 4 4 4 4 4 8 6 4 6 5 3 4 4 6 6 5 8 9 4 1 3 1 3 3 6 5 4 5 4 2 3 6 4 3 3 5 4 2 3 3 1 3 3 2 5 2 3 4 3 4 7 9 11 10 8 8 8 5 2 6 5 5 5 6
19 15 4 7 22 28 31 28 9 3 4 5 3 1 1 1 1 2 2 3 3 4 6 3 2 2 3 3 3 6 6 3 4 4 3 4 3 6 8 5 8 12 9 4 1 1 3 2 6 4 3 6 6 3 2 3 5 6 2 3 1 2 3 2 1 2 3 4 5 4 3 3 2 4 4 7 8 9 8 6 5 5 4 2 1 2 3 4
15 8 1 13 26 30 31 19 1 5 6 5 2 1 1 1 2 4 3 2 3 5 4 2 2 2 2 3 2 4 5 3 2 2 2 3 1 5 9 5 6 11 10 8 4 3 2 1 5 6 4 5 5 5 4 6 5 3 1 3 2 3 3 2 0 2 2 4 5 5 4 2 5 6 2 4 6 7 6 4 3 2 4 4 3 3 4 5
9 3 2 17 29 31 27 10 6 6 5 3 2 1 2 2 3 5 5 5 4 3 2 1 2 2 2 3 2 2 3 2 2 1 0 2 2 4 10 7 6 8 7 8 7 3 4 3 3 7 7 4 2 2 2 3 4 5 5 5 4 2 1 1 1 1 1 2 3 4 4 4 6 3 4 6 9 10 6 3 2 3 3 4 5 5 5 5
5 2 4 18 32 32 22 8 5 5 3 1 2 1 2 3 3 5 6 7 3 2 2 2 2 2 1 2 3 2 2 3 3 2 1 2 2 4 8 8 7 8 5 6 7 3 2 1 1 3 5 3 3 5 1 1 0 1 1 2 3 3 3 3 4 3 2 1 3 4 5 6 5 1 6 7 8 11 9 4 4 5 3 1 5 8 9 9
4 2 6 18 33 29 14 6 2 2 4 2 2 1 2 3 2 6 6 5 3 2 3 2 2 2 1 1 1 1 2 1 1 1 1 1 3 3 6 8 9 8 5 4 4 3 1 2 2 1 3 2 6 8 5 5 4 3 3 3 3 3 5 4 2 4 3 3 3 3 4 6 4 2 7 6 4 6 8 8 8 7 5 5 5 4 5 6
3 4 9 18 29 21 7 4 5 4 3 3 2 1 3 1 4 6 5 5 4 1 3 2 1 2 1 0 1 2 3 0 2 1 1 1 3 4 7 10 10 8 5 4 5 4 2 3 3 2 3 4 7 8 6 7 7 4 2 2 3 2 3 3 4 2 2 3 1 2 4 6 5 5 7 6 5 5 5 6 7 8 7 6 6 5 6 8
1 5 6 15 25 17 8 2 4 3 4 5 3 4 4 1 4 6 5 5 4 1 2 1 0 1 1 1 2 1 2 1 1 3 2 1 0 4 9 11 10 8 5 4 5 4 3 2 3 5 5 6 7 7 7 7 5 2 3 4 3 1 1 2 2 2 1 4 2 2 5 7 6 8 8 9 10 11 10 6 5 7 7 7 6 6 8 8
3 2 4 11 19 15 6 1 3 2 4 5 5 6 5 3 4 6 5 5 3 1 1 2 0 2 0 2 3 2 1 2 1 4 4 2 1 5 9 9 9 8 6 9 9 3 1 1 2 2 3 4 3 3 4 5 4 3 4 7 7 6 4 1 2 3 3 4 3 4 6 8 9 9 9 10 11 13 14 10 5 6 6 6 7 6 7 7
2 2 3 7 10 8 2 2 5 3 3 5 4 4 5 4 5 6 6 4 4 4 2 4 1 2 2 4 3 3 3 1 1 2 4 4 3 4 7 7 9 8 9 13 12 4 2 2 0 2 4 4 4 4 4 4 4 5 7 8 8 8 7 3 2 3 4 4 6 6 5 7 14 15 12 10 10 12 13 10 8 8 7 7 8 8 8 7
3 1 2 3 4 4 3 4 6 4 3 4 2 3 3 3 4 5 4 3 4 5 3 3 2 0 1 1 1 1 3 3 3 3 3 4 3 3 7 6 9 10 11 10 8 4 4 3 4 2 3 3 4 5 5 5 5 6 8 8 6 6 7 4 4 5 3 3 9 10 6 8 15 17 13 9 9 12 12 11 10 10 9 7 6 6 7 6
2 1 1 1 1 2 3 4 4 4 4 4 1 2 3 3 3 3 3 4 4 5 3 3 5 4 1 1 3 1 3 4 4 3 3 4 4 5 7 5 6 11 12 7 4 4 3 3 3 4 7 7 5 5 5 5 7 8 9 10 8 6 8 7 6 7 5 4 11 14 14 13 14 14 13 10 10 11 12 12 10 9 8 7 7 6 6 6
2 1 2 2 1 2 2 4 4 3 4 4 2 2 2 3 4 3 3 4 4 4 3 2 6 7 5 4 4 3 2 2 1 3 3 4 4 4 5 4 4 8 10 6 4 3 1 3 2 5 9 12 9 6 5 6 7 10 13 11 7 7 10 8 6 9 9 8 11 13 15 15 10 8 11 12 11 10 9 9 9 9 9 8 7 7 6 7
1 1 2 3 2 2 3 3 3 4 5 3 1 3 2 3 6 6 4 2 2 4 5 4 4 6 5 6 6 5 2 4 4 2 1 3 3 2 2 1 3 6 8 5 4 4 3 3 3 4 7 12 8 3 4 6 7 13 16 9 5 9 12 9 7 9 8 8 10 11 12 12 8 10 11 11 11 10 10 11 12 11 10 9 8 7 6 5
2 1 1 2 2 3 2 2 3 4 4 3 0 3 3 4 7 6 5 4 5 3 3 2 2 3 5 7 7 5 5 6 6 4 2 2 1 1 1 1 2 5 5 2 2 2 2 3 3 4 4 11 6 2 2 6 7 14 15 6 4 10 10 7 7 6 5 7 9 9 7 6 7 10 11 11 12 12 11 12 12 11 12 12 10 9 7 6
6 2 2 3 0 3 3 2 3 2 1 2 2 3 3 4 6 5 3 2 6 5 2 2 2 3 4 5 3 1 4 6 7 5 4 3 3 4 4 4 3 2 3 2 2 2 3 3 3 1 2 10 8 1 2 3 5 10 9 4 5 7 6 8 6 3 3 3 3 3 3 4 7 8 10 12 13 11 9 10 10 11 11 12 11 10 11 10
Wind_Direction
18 16 11 9 7 6 3 359 355 308 197 198 199 197 200 198 198 197 201 205 205 203 200 203 208 216 224 234 245 254 271 270 276 265 248 253 245 230 214 201 189 228 226 234 257 278 299 297 282 293 311 312 269 267 281 224 165 73 81 269 262 250 262 251 241 225 168 41 29 45 129 117 116 102 93 83 87 102 94 43 65 55 70 109 122 136 145 147
18 17 14 13 11 11 11 11 15 36 178 186 189 192 195 194 197 196 199 205 205 204 199 201 201 207 220 232 247 263 281 278 283 266 252 251 245 224 219 219 210 206 206 221 243 248 267 281 292 330 346 316 271 281 310 286 116 116 166 246 255 207 231 254 223 215 125 151 57 345 149 114 116 123 132 118 107 105 87 57 76 80 87 102 120 135 144 147
19 18 17 16 15 16 19 23 33 66 142 167 178 184 188 190 195 196 198 203 206 205 200 198 196 202 215 229 249 279 286 297 296 265 255 236 219 210 207 208 205 215 226 226 247 245 234 260 299 340 337 304 267 271 316 308 315 241 176 232 251 204 248 296 232 167 184 187 78 30 80 93 118 131 135 123 112 111 118 126 106 109 122 122 132 141 145 149
19 19 19 19 19 20 25 32 47 73 110 140 162 170 180 187 192 199 199 201 206 206 200 192 189 197 199 218 247 288 299 338 271 253 243 207 207 197 193 201 206 219 232 240 254 252 252 271 304 332 304 295 276 285 302 272 284 284 186 221 249 213 338 289 251 143 129 145 82 84 84 84 115 117 115 117 99 92 149 159 146 143 143 141 149 150 149 152
19 19 20 21 22 23 28 38 54 73 95 115 136 157 171 181 192 201 200 202 204 204 199 186 180 185 182 192 219 283 341 30 266 264 233 202 205 196 193 197 202 215 227 243 250 251 261 271 314 341 290 275 294 338 281 247 232 291 258 242 261 283 328 270 253 192 79 60 67 91 93 101 109 88 101 115 117 179 184 175 155 150 152 151 154 154 153 153
18 19 21 22 24 25 30 41 56 71 85 103 118 136 154 169 184 191 195 197 197 199 191 175 173 172 170 168 175 240 66 45 273 286 241 199 199 196 195 198 200 214 227 235 241 246 261 267 46 307 293 297 299 299 270 272 306 289 280 272 270 242 212 274 256 200 113 65 56 100 110 129 108 89 79 95 132 214 173 162 162 155 155 153 152 156 159 159
17 20 21 22 26 28 32 40 55 70 78 93 109 120 130 143 157 171 179 180 184 186 174 166 170 165 161 162 167 47 82 260 272 276 231 196 193 192 194 200 202 211 221 222 221 211 230 281 38 225 291 298 284 270 274 295 284 233 262 292 299 233 109 301 297 256 136 106 109 118 106 120 120 119 98 81 232 235 152 145 159 151 147 150 151 158 164 165
15 19 21 23 26 28 32 38 50 67 77 84 97 112 117 122 134 151 159 162 168 163 161 164 159 160 162 161 166 21 252 254 270 249 212 197 193 196 196 197 202 210 211 211 207 187 200 261 235 209 274 266 262 271 287 314 302 236 282 299 310 323 282 278 295 290 154 112 105 107 102 124 132 123 107 101 222 165 139 137 146 143 143 150 153 161 165 169
13 17 21 23 25 29 32 36 46 62 76 82 81 97 112 120 127 139 148 149 151 152 158 159 157 167 173 168 106 349 253 245 258 221 207 202 195 197 197 194 200 203 202 213 213 200 205 222 223 187 210 271 274 280 297 334 310 303 315 307 305 307 296 268 242 269 245 114 111 107 112 140 140 102 80 288 164 135 134 135 144 146 148 152 157 169 169 171
11 14 19 22 25 27 30 36 47 63 71 82 76 78 100 121 133 142 146 142 143 151 154 157 165 170 177 191 97 203 254 219 200 199 203 205 196 191 194 195 195 194 197 216 214 211 212 216 234 201 239 282 282 285 302 331 299 304 317 313 304 305 301 291 268 254 247 136 127 124 137 159 175 87 103 261 166 132 133 137 148 151 153 157 162 177 177 176
10 13 17 22 25 24 30 35 43 72 77 83 78 75 89 113 137 145 148 147 143 148 156 163 169 166 174 160 126 210 241 203 191 191 202 203 198 200 197 194 191 193 196 210 222 223 223 238 272 349 265 272 298 300 293 281 304 312 325 324 310 316 311 290 296 265 244 116 141 132 130 144 345 48 155 205 172 139 140 147 158 159 161 164 166 176 181 182
9 11 14 19 25 26 28 31 37 76 97 78 80 81 90 112 136 147 150 149 146 149 160 165 165 165 164 78 211 231 224 206 205 189 199 202 202 218 207 197 194 198 201 203 231 231 235 265 297 310 249 265 309 307 288 291 316 314 328 334 310 326 321 284 286 249 176 133 150 121 80 344 327 211 174 179 170 146 146 155 163 163 165 168 168 172 178 181
9 11 13 16 23 28 29 31 34 56 106 83 76 82 96 117 128 145 144 144 149 152 161 165 166 166 126 225 238 248 246 230 216 187 194 193 189 218 205 202 204 209 212 212 231 238 248 266 270 250 250 257 269 272 296 313 334 317 323 341 308 331 313 275 270 250 239 158 157 120 95 269 272 228 190 174 161 141 145 158 161 163 167 169 169 170 172 173
9 11 14 14 20 29 32 33 32 46 106 91 69 79 94 110 123 140 140 144 149 152 161 160 162 152 106 254 266 292 293 243 208 190 187 178 176 203 200 204 216 224 224 223 234 246 254 260 261 253 252 238 248 299 325 329 344 322 320 330 305 318 281 274 262 227 254 179 164 128 132 225 255 243 214 191 165 140 144 158 159 165 168 165 167 170 174 175
10 12 16 15 15 24 34 36 37 48 90 96 71 70 78 94 119 131 132 141 142 150 158 153 162 146 28 277 282 315 310 201 200 198 187 178 179 201 211 208 219 229 229 230 238 252 260 265 265 246 260 283 339 328 329 333 326 334 306 310 291 218 267 285 276 200 203 191 166 140 150 231 245 235 228 208 172 146 146 158 160 163 162 163 164 168 177 181
11 13 17 17 12 16 31 38 43 51 72 87 67 63 74 77 99 116 120 133 140 147 142 136 170 163 12 277 292 316 171 180 203 201 191 188 184 199 216 214 227 235 233 237 244 254 263 268 258 218 245 306 348 320 342 349 320 337 167 265 273 257 275 294 296 209 174 164 178 160 153 215 237 224 228 224 181 153 151 166 167 164 163 166 164 167 174 176
13 14 17 17 11 10 20 34 46 54 65 79 75 75 79 76 91 107 107 114 128 141 138 103 128 173 263 279 303 282 199 187 200 195 194 200 199 206 209 209 236 238 236 245 249 256 269 269 265 280 339 327 143 104 21 329 287 306 222 246 264 246 241 263 305 259 166 159 182 171 157 191 211 198 203 221 194 162 162 178 180 172 167 166 164 169 173 173
14 14 16 16 11 6 8 22 39 51 63 81 102 89 94 104 102 102 105 112 109 103 258 303 5 92 277 274 268 246 197 191 191 188 195 203 208 211 205 202 215 216 242 276 262 259 284 303 326 323 332 309 184 120 133 243 221 248 241 253 285 263 232 241 279 286 204 177 174 171 185 202 201 174 186 209 201 182 181 185 186 179 170 169 168 172 174 176
14 13 14 13 10 4 358 2 16 34 55 71 144 137 128 121 108 103 112 113 104 108 263 223 176 133 274 240 236 242 218 201 192 188 196 200 207 210 209 219 200 147 114 16 277 256 182 312 339 306 279 248 227 178 199 229 223 231 255 265 271 270 269 259 260 260 258 269 209 181 181 186 184 180 186 200 201 195 197 191 188 184 176 172 172 175 175 179
13 11 11 10 8 3 352 346 353 3 19 53 170 144 121 101 71 59 155 172 206 220 242 207 195 261 290 298 302 253 215 200 191 190 197 198 196 191 203 226 169 130 164 173 243 263 146 192 254 234 238 238 232 214 215 238 250 255 270 265 249 246 278 274 270 266 233 245 240 195 170 178 186 187 189 192 189 196 207 201 194 189 185 180 178 179 178 184
10 8 7 6 5 2 349 337 342 349 8 86 168 146 127 74 74 291 272 239 232 227 246 240 206 237 259 278 299 275 198 185 194 189 196 197 178 154 202 199 162 221 223 193 231 302 127 200 241 233 234 241 241 232 229 250 262 262 256 248 257 256 271 275 278 292 277 200 241 198 162 184 193 192 189 177 179 200 204 199 197 192 189 185 179 177 177 178
9 5 3 2 1 1 347 333 338 344 358 41 132 170 272 340 300 268 273 277 266 226 235 249 220 240 251 256 269 268 284 214 201 199 194 187 160 162 213 176 172 225 240 175 296 334 336 236 246 242 236 247 259 250 235 245 248 248 235 216 278 290 291 289 291 316 324 218 252 217 174 207 209 196 186 178 187 202 202 197 194 188 185 182 177 172 164 161
8 4 3 359 358 1 348 335 346 348 346 357 36 16 350 352 336 300 5 299 290 239 222 237 218 242 254 250 255 249 248 219 191 213 192 170 163 177 174 188 198 228 228 167 198 231 262 250 247 249 244 244 263 264 247 249 244 231 221 170 282 285 353 292 299 331 322 270 269 206 212 267 253 184 193 199 197 199 205 203 193 186 186 181 177 169 159 158
7 5 3 358 359 2 353 359 13 5 359 13 30 5 359 4 357 335 18 188 288 269 227 220 203 223 241 246 244 213 208 213 181 198 185 165 162 164 170 195 191 223 236 207 209 212 242 254 254 261 256 230 249 265 249 232 280 276 248 218 254 285 304 252 284 323 323 324 35 64 17 310 323 129 204 214 205 198 200 198 198 198 194 180 171 166 162 161
7 7 5 2 4 5 15 57 22 15 45 90 27 353 355 4 357 359 65 58 302 282 241 211 192 225 237 237 226 196 183 215 206 182 176 174 173 154 185 197 161 220 241 233 231 234 248 256 260 262 256 237 236 251 228 185 290 314 262 218 209 246 267 263 293 347 6 341 333 62 37 294 315 328 208 198 197 208 194 191 200 200 193 186 173 170 168 163
6 6 7 7 8 11 64 90 12 15 86 66 10 344 339 342 347 6 82 46 324 270 223 170 172 214 233 218 190 155 116 252 230 172 172 185 183 161 171 213 171 230 231 228 235 242 251 259 261 250 246 231 220 231 230 185 92 331 260 200 127 154 266 282 313 29 47 291 284 76 117 251 313 300 220 193 197 205 194 198 203 196 193 193 182 177 173 167
6 4 8 9 13 21 40 326 359 22 101 343 346 336 328 328 340 9 72 41 333 264 190 169 201 171 205 198 159 120 141 259 255 165 177 187 182 156 191 226 272 248 222 127 325 266 259 295 317 287 275 208 198 227 235 140 96 264 242 152 73 352 313 285 288 164 199 257 307 11 133 191 285 272 230 191 194 207 210 212 209 200 200 196 191 186 179 173
5 2 5 9 14 22 26 1 355 21 357 330 332 327 325 329 342 73 87 61 290 279 131 198 244 182 220 185 150 148 208 217 50 218 193 181 176 147 202 218 212 243 230 111 276 266 249 285 296 311 342 340 231 230 211 120 111 241 226 169 113 302 271 270 286 272 256 334 312 304 349 183 260 276 293 158 182 216 226 220 211 203 202 197 196 193 184 180
4 0 360 3 8 17 22 12 351 350 340 333 330 325 324 337 27 71 82 95 259 322 40 168 211 229 243 161 180 223 226 141 168 228 175 174 192 172 199 213 193 240 247 155 235 263 245 257 266 303 307 266 236 235 193 138 191 237 211 204 47 53 292 345 56 283 15 52 264 268 260 159 267 288 333 130 191 218 224 223 217 208 203 199 200 199 191 184
2 359 355 354 356 359 358 354 356 346 333 330 327 324 329 66 61 64 60 246 271 317 337 344 300 227 174 162 225 245 219 206 175 173 114 195 219 218 225 209 143 225 282 267 259 259 259 288 310 240 245 229 232 242 201 175 201 181 51 3 356 9 6 20 60 80 50 321 255 257 235 151 270 286 257 183 210 219 216 219 220 211 206 204 204 202 197 192
359 357 352 348 347 344 336 335 350 342 328 328 325 326 28 62 57 88 184 246 278 313 339 338 318 340 185 186 213 246 222 226 142 146 185 238 230 260 294 335 51 28 348 328 288 283 295 310 302 241 233 234 240 256 254 190 110 69 57 32 357 338 359 11 358 33 56 266 263 277 285 147 207 272 251 242 250 223 207 207 206 201 203 206 206 203 199 195
358 352 349 351 352 349 340 335 342 341 332 330 328 350 83 44 29 124 248 302 359 314 322 309 310 322 281 214 222 243 215 229 183 163 182 205 200 210 217 206 178 71 322 273 275 325 311 277 283 285 289 299 249 251 305 341 35 59 65 57 38 335 348 354 322 331 236 253 262 306 353 108 227 257 252 267 268 219 200 202 199 198 203 206 206 202 196 192
356 347 342 353 4 5 359 351 347 344 332 329 341 54 77 78 199 248 290 340 316 285 294 287 300 307 301 66 1 305 264 270 252 201 192 175 175 228 249 227 187 167 249 237 246 347 315 298 324 341 330 339 59 154 295 298 54 93 118 109 105 110 3 292 289 301 280 273 273 301 337 297 282 278 235 232 242 213 195 198 196 198 204 206 205 200 190 186
353 348 335 350 11 7 356 353 346 335 329 336 35 61 62 92 231 284 352 299 247 286 305 302 306 322 32 68 33 18 18 326 334 303 221 141 142 232 295 289 231 184 26 5 245 169 31 303 319 351 333 350 44 110 183 205 155 184 161 131 128 144 159 220 233 233 258 277 290 308 301 230 224 267 233 222 246 248 231 225 208 205 212 208 200 191 183 182
350 351 334 340 11 0 350 350 341 327 328 13 64 67 81 142 256 320 341 270 264 314 311 329 349 9 29 20 20 39 52 349 353 355 360 90 127 189 327 330 296 147 89 56 248 186 118 243 258 285 358 44 28 5 62 46 9 284 91 81 141 181 156 171 209 200 215 279 288 296 273 222 206 267 282 283 303 318 312 289 246 224 223 205 186 184 180 181
349 353 338 295 2 356 349 348 338 320 334 71 67 56 122 183 232 209 254 275 303 322 323 352 17 34 6 344 359 5 16 38 4 5 22 24 44 25 345 13 21 11 102 141 238 195 98 257 279 333 28 55 27 339 38 51 350 294 10 307 244 179 136 138 280 280 77 305 275 255 265 292 325 312 313 338 339 338 339 332 317 245 199 169 174 187 184 184
349 349 320 299 353 352 347 345 336 299 73 77 89 109 204 185 200 237 284 317 309 345 47 33 12 29 3 345 352 347 358 23 6 11 1 348 35 22 354 16 21 1 350 279 246 183 115 259 298 358 7 353 339 306 91 95 111 74 1 276 271 33 88 116 297 326 14 273 275 274 248 286 332 300 310 340 336 332 339 343 352 9 125 162 179 187 192 194
345 341 304 342 352 349 346 344 335 162 79 62 93 138 245 191 281 294 313 340 340 28 64 62 2 44 36 7 338 344 9 19 355 12 356 345 45 33 10 359 4 3 1 17 14 17 64 275 293 354 4 320 334 18 54 64 92 107 181 270 27 16 319 8 25 294 315 289 287 297 270 261 233 245 312 336 317 319 334 349 27 49 61 79 87 45 11 352
353 348 305 353 355 351 348 346 57 105 58 66 84 14 324 292 316 324 331 16 42 51 60 38 360 30 46 43 341 342 20 40 3 18 23 5 359 20 20 359 350 6 15 47 61 319 22 88 280 312 339 326 354 33 10 333 357 64 47 1 56 182 227 309 276 200 267 278 281 303 313 295 238 213 132 2 327 324 318 333 30 134 146 121 122 108 62 37
3 18 280 350 356 352 350 4 101 57 58 114 127 203 348 360 318 327 6 45 63 74 59 15 20 27 9 21 12 345 10 29 34 46 24 359 314 356 13 6 357 4 16 54 58 352 13 59 267 301 333 356 1 16 36 349 341 2 5 3 2 336 275 323 303 167 191 258 274 305 302 272 252 214 87 36 1 347 314 269 307 260 191 123 108 115 122 135
7 43 296 353 360 352 353 36 66 32 95 83 17 69 357 333 306 329 11 44 67 108 83 98 75 49 43 17 5 343 351 360 24 44 285 349 13 3 359 3 9 4 11 37 32 18 12 22 245 313 340 7 286 280 335 34 205 132 69 36 25 9 48 42 327 324 16 297 262 286 288 272 258 79 57 32 10 4 355 344 342 324 301 191 149 158 172 175
42 14 293 354 359 349 2 70 358 4 96 27 348 92 321 297 344 348 354 26 46 51 30 66 87 52 99 78 336 356 43 11 347 17 220 13 58 45 0 7 21 22 40 36 336 286 185 88 86 295 275 286 293 297 338 7 20 92 114 93 75 64 77 81 284 290 318 306 289 296 287 267 250 65 45 25 24 31 11 351 345 334 299 266 244 215 196 197
64 299 293 352 359 357 42 74 338 4 52 323 273 4 330 317 20 359 349 9 10 7 19 23 54 56 89 81 352 20 26 32 224 237 210 15 63 74 35 26 32 31 39 26 326 312 354 52 43 316 284 318 317 317 349 13 26 42 33 50 80 96 106 172 209 220 270 281 341 342 283 265 280 344 10 2 357 8 353 335 327 319 303 272 257 248 232 228
321 272 280 349 6 29 76 52 349 8 348 336 354 3 347 2 25 8 354 349 339 32 44 329 358 103 172 118 76 17 356 15 290 318 12 3 260 65 46 38 42 39 28 9 347 340 341 354 20 356 333 342 344 343 350 357 14 15 296 318 332 51 91 224 219 64 282 244 187 223 266 268 288 322 343 349 347 340 328 310 268 281 300 288 261 235 233 235
331 287 266 336 10 41 78 80 63 54 352 7 11 357 353 351 4 4 350 327 313 62 30 290 315 111 182 47 49 346 357 107 287 327 360 346 326 31 32 36 46 47 33 17 9 3 308 304 56 37 315 309 321 318 310 318 333 322 299 315 323 343 19 14 330 352 287 267 266 245 260 280 290 305 328 339 339 329 319 311 275 256 259 261 265 260 256 250
23 10 308 329 8 39 67 41 61 68 15 18 2 339 352 345 332 348 359 340 326 3 340 273 278 77 41 41 46 341 337 84 134 23 10 355 360 7 359 23 45 50 50 31 12 12 82 11 340 186 215 218 215 239 269 307 325 308 302 311 317 329 350 16 349 298 251 273 288 260 250 290 298 303 319 329 323 313 304 299 299 295 275 254 253 250 252 253
73 53 348 339 337 8 30 16 30 42 3 7 1 303 322 338 323 331 349 323 315 344 326 278 311 96 249 17 104 277 319 344 32 52 19 356 350 333 340 16 39 34 46 41 12 38 74 348 303 275 256 229 211 244 286 319 302 280 288 294 299 315 319 315 296 270 246 294 292 280 282 293 292 297 306 308 301 301 299 295 299 302 296 284 270 260 265 272
55 166 70 103 249 329 13 344 357 24 355 342 337 287 302 329 314 306 322 314 317 332 313 321 358 9 17 83 125 108 343 1 14 6 12 5 349 343 348 359 25 25 31 30 11 61 96 255 286 346 322 303 294 290 301 309 292 282 284 284 293 302 286 276 271 257 240 257 274 284 295 289 282 293 304 309 308 304 299 297 301 305 308 312 308 300 295 286
44 54 335 28 138 209 252 299 325 22 5 344 331 303 284 315 308 279 284 300 308 330 11 30 344 350 26 64 109 97 15 43 2 324 1 14 355 7 360 337 355 19 25 20 2 37 74 247 289 350 316 297 293 288 285 292 292 286 280 279 294 290 273 270 266 257 252 252 262 280 291 285 289 322 324 322 322 312 300 302 315 318 315 318 319 314 302 286
53 69 324 5 13 268 254 311 358 26 358 345 318 290 288 348 336 315 310 326 316 337 35 64 321 330 25 49 84 108 152 157 164 242 49 41 360 10 19 333 340 351 4 13 348 356 4 285 289 350 312 289 281 247 262 284 287 280 282 295 317 286 277 277 264 258 264 265 265 272 277 282 318 351 336 326 334 338 336 335 333 324 315 315 313 307 298 284
7 240 319 67 347 320 327 339 33 48 346 322 357 314 332 12 356 332 333 40 74 46 38 71 316 338 32 46 78 134 192 168 159 185 158 131 189 208 224 262 349 339 338 334 308 340 353 280 307 16 306 280 281 99 294 299 298 287 287 296 270 263 269 270 255 254 261 262 271 282 283 295 328 336 333 339 351 359 0 353 343 333 332 334 328 325 338 353
20 318 3 83 231 326 15 353 15 67 264 284 24 1 349 3 357 357 349 36 76 75 56 79 71 44 21 11 29 156 186 162 164 186 173 166 200 208 222 235 235 245 245 240 253 227 185 230 288 28 252 276 288 40 58 343 323 291 270 209 216 248 266 274 278 320 320 277 276 284 278 294 310 329 346 351 355 5 11 4 353 344 349 3 11 11 17 20